Change the Weather History Date:

Tuesday, May 1, 2012

  Actual Average Record
Temperature  
Mean Temperature 65 °F 63 °F  
Max Temperature 75 °F 78 °F 95 °F (1996)
Min Temperature 54 °F 48 °F 28 °F (1988)
Degree Days  
Heating Degree Days 0 4  
Month to date heating degree days 0 4  
Since 1 July heating degree days 2798 2854  
Cooling Degree Days 0 2  
Month to date cooling degree days 0 2  
Year to date cooling degree days 55 25  
Growing Degree Days 14 (Base 50)    
Moisture  
Dew Point 47 °F    
Average Humidity 59    
Maximum Humidity 77    
Minimum Humidity 41    
Precipitation  
Precipitation 0.00 in 0.01 in 0.25 in (1941)
Month to date precipitation 0.00 0.01  
Year to date precipitation 1.79 4.99  
Since 1 July precipitation 3.72 7.97  
Snow  
Snow 0.00 in - 0.00 in (1973)
Month to date snowfall 0.0  
Since 1 July snowfall 0.0  
Snow Depth 0.00 in    
Sea Level Pressure  
Sea Level Pressure 29.80 in    
Wind  
Wind Speed 18 mph (SW)    
Max Wind Speed 31 mph    
Max Gust Speed 37 mph    
Visibility 10 miles    
Events      
T = Trace of Precipitation, MM = Missing Value Source: NWS Daily Summary

Daily Weather History Graph

Daily Weather History Graph

Search for Another Location

Airport or City:

Trip Planner

Search our weather history database for the weather conditions in past years. The results will help you decide how hot, cold, wet, or windy it might be!

Date:

Astronomy

May. 01, 2012 Rise Set
Actual Time 6:01 AM PDT 7:37 PM PDT
Civil Twilight 5:34 AM PDT 8:04 PM PDT
Nautical Twilight 5:02 AM PDT 8:37 PM PDT
Astronomical Twilight 4:28 AM PDT 9:11 PM PDT
Moon 2:57 PM PDT (5/1) 2:48 AM PDT (5/1)
Length of Visible Light 14h 30m
Length of Day
13h 36m
Waxing Gibbous, 75% of the Moon is Illuminated
May 1
Waxing Gibbous
May 5
Full
May 12
Last Quarter
May 20
New
May 28
First Quarter

Hourly Weather History & Observations

Time (PDT) Temp. Dew Point Humidity Pressure Visibility Wind Dir Wind Speed Gust Speed Precip Events Conditions
12:53 AM 64.0 °F 46.9 °F 54% 29.81 in 10.0 mi SW 16.1 mph - N/A   Unknown
1:53 AM 64.4 °F 46.4 °F 52% 29.87 in 10.0 mi SW 12.7 mph - N/A   Unknown
2:53 AM 60.8 °F 46.4 °F 59% 29.87 in 10.0 mi SW 13.8 mph - N/A   Unknown
3:53 AM 62.1 °F 46.0 °F 56% 29.80 in 10.0 mi SSW 8.1 mph - N/A   Unknown
4:53 AM 60.1 °F 46.9 °F 62% 29.79 in 10.0 mi SSE 10.4 mph - N/A   Unknown
5:53 AM 64.4 °F 44.6 °F 49% 29.86 in 10.0 mi West 16.1 mph 21.9 mph N/A   Unknown
6:53 AM 59.0 °F 48.0 °F 67% 29.80 in 10.0 mi South 6.9 mph - N/A   Unknown
7:53 AM 66.0 °F 46.0 °F 48% 29.81 in 10.0 mi West 11.5 mph - N/A   Unknown
8:53 AM 69.1 °F 48.0 °F 47% 29.80 in 10.0 mi WSW 6.9 mph - N/A   Unknown
9:53 AM 71.1 °F 46.0 °F 41% 29.80 in 10.0 mi SW 11.5 mph - N/A   Unknown
10:53 AM 73.9 °F 48.0 °F 40% 29.79 in 10.0 mi SW 17.3 mph - N/A   Unknown
11:53 AM 73.4 °F 48.2 °F 41% 29.83 in 10.0 mi SW 24.2 mph - N/A   Unknown
2:53 PM 69.1 °F 50.0 °F 51% 29.77 in - SW 25.3 mph - N/A   Unknown
3:53 PM 66.0 °F 50.0 °F 56% 29.77 in 10.0 mi SW 25.3 mph - N/A   Clear
4:53 PM 63.0 °F 50.0 °F 63% 29.76 in 10.0 mi SW 27.6 mph 35.7 mph N/A   Clear
5:53 PM 63.0 °F 48.0 °F 58% 29.76 in 10.0 mi SW 23.0 mph 31.1 mph N/A   Clear
6:53 PM 61.0 °F 46.0 °F 58% 29.76 in 10.0 mi SW 25.3 mph 33.4 mph N/A   Clear
7:53 PM 57.0 °F 46.9 °F 69% 29.78 in 10.0 mi SW 23.0 mph - N/A   Clear
8:53 PM 55.9 °F 48.0 °F 75% 29.78 in 10.0 mi SSW 23.0 mph 28.8 mph N/A   Clear
9:53 PM 55.9 °F 46.9 °F 72% 29.79 in 10.0 mi SW 23.0 mph - N/A   Clear
10:53 PM 55.0 °F 46.9 °F 74% 29.78 in 10.0 mi SW 25.3 mph - N/A   Clear
11:53 PM 55.0 °F 46.0 °F 72% 29.77 in 10.0 mi SW 23.0 mph - N/A   Clear